Tracking 30685 objects as of 17-Jun-2025
HD Live streaming from Space Station
objects crossing your sky now

NOAA 16 DEB

Track NOAA 16 DEB now!
10-day predictions


NORAD ID: 41523
Int'l Code: 2000-055MX
Perigee: 809.9 km
Apogee: 824.9 km
Inclination: 98.7 °
Period: 101.1 minutes
Semi major axis: 7188 km
RCS: Unknown
Launch date: September 21, 2000
Source: United States (US)
Launch site: AIR FORCE WESTERN TEST RANGE (AFWTR)

Note: This is SATELLITE DEBRIS
Your satellite tracking list
Your tracking list is empty




NASA's NSSDC Master Catalog

Two Line Element Set (TLE):
1 41523U 00055MX  25167.47159028  .00002900  00000-0  12698-2 0  9991
2 41523  98.7353 245.7528 0010462  60.8268 299.3956 14.24475614472248
Source of the keplerian elements: AFSPC